AFR863 DXXX-LFPG

Flight info

Callsign AFR863
Flight time N/A
Altitude 38000
Route AMSOM2S AMSOM UR983 OG UR866 VOSNU/N0472F400 UR866 BULIS DCT MABAP UR722 SAK UG5 KORIS DCT SVL DCT HIJ DCT RUSEM DCT SOTUK DCT USOKO DCT TLD DCT SIE DCT EDIGO DCT DGO L176 LUSEM DCT LULUT DCT POI/N0463F300 DCT PEPAX UT182 KEPER
Aircraft A332/H-SDE3GHIJ2J3J5M1RVWXY/LB2D1

Departure

Time N/A
Airport Lomé–Tokoin International Airport (DXXX)

Arrival

Time 2026-05-07 22:37
Airport Charles de Gaulle International Airport (LFPG)
Time Latitude Longitude Altitude Speed Heading
2026-05-07 17:05 10.45892 -0.61389 29154 ft 511 kts 332°
2026-05-07 17:05 10.49052 -0.63026 29270 ft 510 kts 332°
2026-05-07 17:06 10.55389 -0.66312 29409 ft 511 kts 332°
2026-05-07 17:06 10.58555 -0.67954 29584 ft 509 kts 332°
2026-05-07 17:06 10.61705 -0.69589 29712 ft 509 kts 332°
2026-05-07 17:07 10.68015 -0.72864 29867 ft 509 kts 332°
2026-05-07 17:07 10.71123 -0.74478 29988 ft 508 kts 332°
2026-05-07 17:07 10.74310 -0.76133 30116 ft 507 kts 331°
2026-05-07 17:08 10.80590 -0.79396 30293 ft 507 kts 332°
2026-05-07 17:08 10.83679 -0.81001 30421 ft 506 kts 332°
2026-05-07 17:08 10.86801 -0.82624 30596 ft 503 kts 332°
2026-05-07 17:09 10.89963 -0.84268 30725 ft 503 kts 331°
2026-05-07 17:09 10.93085 -0.85892 30816 ft 503 kts 332°
2026-05-07 17:09 10.96194 -0.87509 30976 ft 501 kts 332°
2026-05-07 17:09 10.99249 -0.89097 31130 ft 500 kts 332°
2026-05-07 17:10 11.02374 -0.90643 31307 ft 499 kts 333°
2026-05-07 17:10 11.05527 -0.92113 31463 ft 498 kts 334°
2026-05-07 17:10 11.08708 -0.93551 31658 ft 496 kts 335°
2026-05-07 17:10 11.11884 -0.94974 31870 ft 494 kts 335°
2026-05-07 17:11 11.14978 -0.96363 32101 ft 492 kts 334°
2026-05-07 17:11 11.18142 -0.97791 32363 ft 490 kts 334°
2026-05-07 17:11 11.21212 -0.99185 32620 ft 488 kts 334°
2026-05-07 17:11 11.24295 -1.00589 32844 ft 486 kts 334°
2026-05-07 17:12 11.27392 -1.02004 33131 ft 484 kts 334°
2026-05-07 17:12 11.30452 -1.03405 33422 ft 482 kts 334°
2026-05-07 17:12 11.33506 -1.04803 33729 ft 479 kts 334°
2026-05-07 17:12 11.36532 -1.06190 34046 ft 475 kts 334°
2026-05-07 17:13 11.39547 -1.07571 34273 ft 474 kts 334°
2026-05-07 17:13 11.42554 -1.08948 34451 ft 474 kts 334°
2026-05-07 17:13 11.44586 -1.09879 34584 ft 474 kts 334°
2026-05-07 17:13 11.48566 -1.11703 34841 ft 473 kts 334°
2026-05-07 17:14 11.51569 -1.13079 35041 ft 473 kts 334°
2026-05-07 17:14 11.53552 -1.13988 35167 ft 472 kts 334°
2026-05-07 17:14 11.56548 -1.15362 35370 ft 472 kts 334°
2026-05-07 17:14 11.59544 -1.16735 35535 ft 472 kts 334°
2026-05-07 17:15 11.62533 -1.18107 35732 ft 471 kts 334°
2026-05-07 17:15 11.65514 -1.19474 35943 ft 470 kts 334°
2026-05-07 17:15 11.68507 -1.20847 36150 ft 470 kts 334°
2026-05-07 17:15 11.71490 -1.22217 36304 ft 470 kts 334°
2026-05-07 17:16 11.74471 -1.23585 36459 ft 470 kts 334°
2026-05-07 17:16 11.77449 -1.24953 36673 ft 470 kts 334°
2026-05-07 17:16 11.80431 -1.26322 36857 ft 469 kts 334°
2026-05-07 17:16 11.83398 -1.27686 37054 ft 468 kts 334°
2026-05-07 17:17 11.86362 -1.29048 37228 ft 467 kts 334°
2026-05-07 17:17 11.89323 -1.30408 37441 ft 466 kts 334°
2026-05-07 17:17 11.92281 -1.31768 37617 ft 465 kts 334°
2026-05-07 17:17 11.95232 -1.33126 37778 ft 465 kts 334°
2026-05-07 17:18 12.01133 -1.35840 37821 ft 464 kts 334°
2026-05-07 17:18 12.07010 -1.38545 37824 ft 463 kts 334°
2026-05-07 17:19 12.12896 -1.41256 37819 ft 464 kts 334°
2026-05-07 17:19 12.18779 -1.43966 37813 ft 464 kts 334°
2026-05-07 17:20 12.24661 -1.46678 37810 ft 464 kts 334°
2026-05-07 17:20 12.30547 -1.49392 37799 ft 464 kts 334°
2026-05-07 17:21 12.36395 -1.52081 37801 ft 464 kts 334°
2026-05-07 17:21 12.42295 -1.54757 37808 ft 464 kts 334°
2026-05-07 17:22 12.48222 -1.57436 37813 ft 467 kts 334°
2026-05-07 17:22 12.54165 -1.60125 37805 ft 467 kts 334°
2026-05-07 17:23 12.60109 -1.62818 37822 ft 467 kts 334°
2026-05-07 17:23 12.66055 -1.65516 37823 ft 467 kts 334°
2026-05-07 17:24 12.71999 -1.68214 37821 ft 467 kts 334°
2026-05-07 17:24 12.77949 -1.70916 37808 ft 467 kts 334°
2026-05-07 17:25 12.83903 -1.73621 37812 ft 469 kts 334°
2026-05-07 17:25 12.89876 -1.76337 37812 ft 470 kts 334°
2026-05-07 17:26 12.95849 -1.79053 37791 ft 469 kts 334°
2026-05-07 17:26 13.01820 -1.81770 37806 ft 469 kts 334°
2026-05-07 17:27 13.07789 -1.84488 37780 ft 469 kts 334°
2026-05-07 17:27 13.13759 -1.87208 37789 ft 469 kts 333°
2026-05-07 17:28 13.19680 -1.89906 37789 ft 468 kts 333°
2026-05-07 17:28 13.25628 -1.92618 37782 ft 468 kts 333°
2026-05-07 17:29 13.31568 -1.95328 37783 ft 467 kts 333°
2026-05-07 17:29 13.37500 -1.98037 37777 ft 467 kts 333°
2026-05-07 17:30 13.43440 -2.00750 37778 ft 467 kts 333°
2026-05-07 17:30 13.49379 -2.03464 37781 ft 467 kts 333°
2026-05-07 17:31 13.55310 -2.06176 37772 ft 466 kts 333°
2026-05-07 17:31 13.61223 -2.08881 37772 ft 465 kts 333°
2026-05-07 17:32 13.67136 -2.11587 37772 ft 465 kts 333°
2026-05-07 17:32 13.73056 -2.14299 37775 ft 465 kts 333°
2026-05-07 17:33 13.78972 -2.17010 37777 ft 465 kts 333°
2026-05-07 17:33 13.84884 -2.19720 37786 ft 465 kts 333°
2026-05-07 17:34 13.90801 -2.22435 37777 ft 466 kts 333°
2026-05-07 17:34 13.96681 -2.25134 37772 ft 467 kts 333°
2026-05-07 17:35 14.02621 -2.27862 37771 ft 467 kts 333°
2026-05-07 17:35 14.08552 -2.30588 37770 ft 466 kts 333°
2026-05-07 17:36 14.14476 -2.33312 37774 ft 466 kts 333°
2026-05-07 17:36 14.20388 -2.36031 37773 ft 465 kts 333°
2026-05-07 17:37 14.26311 -2.38759 37764 ft 468 kts 332°
2026-05-07 17:37 14.32262 -2.41501 37763 ft 469 kts 332°
2026-05-07 17:38 14.38215 -2.44244 37753 ft 469 kts 332°
2026-05-07 17:38 14.44173 -2.46990 37763 ft 469 kts 332°
2026-05-07 17:39 14.50132 -2.49738 37758 ft 469 kts 332°
2026-05-07 17:39 14.56085 -2.52485 37757 ft 469 kts 332°
2026-05-07 17:40 14.62041 -2.55236 37758 ft 469 kts 332°
2026-05-07 17:40 14.67994 -2.57986 37762 ft 469 kts 332°
2026-05-07 17:41 14.73950 -2.60740 37772 ft 469 kts 332°
2026-05-07 17:41 14.79901 -2.63493 37770 ft 469 kts 332°
2026-05-07 17:42 14.85846 -2.66245 37772 ft 469 kts 332°
2026-05-07 17:42 14.91801 -2.69003 37785 ft 469 kts 332°
2026-05-07 17:43 14.97720 -2.71746 37772 ft 469 kts 332°
2026-05-07 17:43 15.03664 -2.74502 37772 ft 469 kts 332°
2026-05-07 17:44 15.09628 -2.77270 37793 ft 469 kts 332°
2026-05-07 17:44 15.15577 -2.80035 37796 ft 469 kts 332°
2026-05-07 17:45 15.21520 -2.82798 37807 ft 469 kts 332°
2026-05-07 17:45 15.27477 -2.85570 37815 ft 469 kts 332°
2026-05-07 17:46 15.33402 -2.88328 37808 ft 465 kts 332°
2026-05-07 17:46 15.39279 -2.91064 37825 ft 463 kts 332°
2026-05-07 17:47 15.45149 -2.93801 37826 ft 462 kts 332°
2026-05-07 17:47 15.50998 -2.96529 37834 ft 462 kts 332°
2026-05-07 17:48 15.56867 -2.99268 37835 ft 461 kts 332°
2026-05-07 17:48 15.62711 -3.01998 37849 ft 461 kts 332°
2026-05-07 17:49 15.68602 -3.04751 37841 ft 466 kts 332°
2026-05-07 17:49 15.74541 -3.07530 37830 ft 470 kts 332°
2026-05-07 17:50 15.80504 -3.10319 37836 ft 470 kts 332°
2026-05-07 17:50 15.86478 -3.13115 37827 ft 470 kts 332°
2026-05-07 17:51 15.92416 -3.15896 37826 ft 470 kts 332°
2026-05-07 17:51 15.98406 -3.18704 37816 ft 470 kts 331°
2026-05-07 17:52 16.04351 -3.21494 37809 ft 469 kts 330°
2026-05-07 17:52 16.10308 -3.24290 37804 ft 469 kts 330°
2026-05-07 17:53 16.16235 -3.27073 37806 ft 469 kts 330°
2026-05-07 17:53 16.22202 -3.29878 37798 ft 469 kts 330°
2026-05-07 17:54 16.28146 -3.32674 37794 ft 469 kts 330°
2026-05-07 17:54 16.34088 -3.35470 37810 ft 469 kts 330°
2026-05-07 17:55 16.40007 -3.38257 37787 ft 465 kts 330°
2026-05-07 17:55 16.45847 -3.41008 37787 ft 464 kts 330°
2026-05-07 17:56 16.51731 -3.43784 37785 ft 464 kts 330°
2026-05-07 17:56 16.57551 -3.46530 37776 ft 462 kts 330°
2026-05-07 17:57 16.62512 -3.48871 37764 ft 462 kts 330°
2026-05-07 17:57 16.69321 -3.52089 37759 ft 462 kts 329°
2026-05-07 17:58 16.75117 -3.54827 37760 ft 459 kts 329°
2026-05-07 17:58 16.80971 -3.57597 37764 ft 459 kts 329°
2026-05-07 17:59 16.86770 -3.60343 37760 ft 459 kts 329°
2026-05-07 17:59 16.92589 -3.63100 37762 ft 459 kts 329°
2026-05-07 18:00 16.98399 -3.65855 37763 ft 459 kts 329°
2026-05-07 18:00 17.04197 -3.68605 37768 ft 458 kts 329°
2026-05-07 18:01 17.10000 -3.71358 37764 ft 456 kts 329°
2026-05-07 18:01 17.15744 -3.74087 37766 ft 455 kts 329°
2026-05-07 18:02 17.23449 -3.77751 37771 ft 455 kts 329°
2026-05-07 18:03 17.29215 -3.80495 37773 ft 455 kts 329°
2026-05-07 18:03 17.34982 -3.83240 37772 ft 455 kts 329°
2026-05-07 18:04 17.40695 -3.85961 37775 ft 452 kts 328°
2026-05-07 18:04 17.46415 -3.88687 37775 ft 451 kts 328°
2026-05-07 18:05 17.52118 -3.91409 37779 ft 451 kts 328°
2026-05-07 18:05 17.57834 -3.94139 37785 ft 451 kts 328°
2026-05-07 18:06 17.63535 -3.96863 37780 ft 451 kts 328°
2026-05-07 18:06 17.69260 -3.99600 37781 ft 451 kts 328°
2026-05-07 18:07 17.74971 -4.02333 37787 ft 451 kts 328°
2026-05-07 18:07 17.80686 -4.05069 37787 ft 452 kts 328°
2026-05-07 18:08 17.86375 -4.07795 37790 ft 452 kts 328°
2026-05-07 18:08 17.92123 -4.10551 37789 ft 452 kts 328°
2026-05-07 18:09 17.97842 -4.13295 37798 ft 452 kts 328°
2026-05-07 18:09 18.03556 -4.16038 37797 ft 452 kts 328°
2026-05-07 18:10 18.09230 -4.18765 37799 ft 452 kts 328°
2026-05-07 18:10 18.14989 -4.21534 37802 ft 452 kts 328°
2026-05-07 18:11 18.20713 -4.24288 37801 ft 452 kts 328°
2026-05-07 18:11 18.26427 -4.27040 37801 ft 452 kts 328°
2026-05-07 18:12 18.32135 -4.29790 37800 ft 452 kts 328°
2026-05-07 18:12 18.37865 -4.32553 37813 ft 452 kts 328°
2026-05-07 18:13 18.43521 -4.35283 37806 ft 453 kts 328°
2026-05-07 18:13 18.49275 -4.38062 37808 ft 454 kts 328°
2026-05-07 18:14 18.55004 -4.40830 37806 ft 454 kts 328°
2026-05-07 18:14 18.60757 -4.43612 37808 ft 454 kts 328°
2026-05-07 18:15 18.66495 -4.46390 37814 ft 454 kts 328°
2026-05-07 18:15 18.72233 -4.49169 37814 ft 454 kts 328°
2026-05-07 18:16 18.77976 -4.51953 37811 ft 455 kts 327°
2026-05-07 18:16 18.83727 -4.54744 37817 ft 455 kts 327°
2026-05-07 18:17 18.89479 -4.57535 37820 ft 455 kts 327°
2026-05-07 18:17 18.95225 -4.60328 37819 ft 457 kts 327°
2026-05-07 18:18 19.01018 -4.63145 37822 ft 457 kts 327°
2026-05-07 18:18 19.06799 -4.65957 37841 ft 457 kts 327°
2026-05-07 18:19 19.12566 -4.68763 37823 ft 456 kts 327°
2026-05-07 18:19 19.18325 -4.71569 37825 ft 455 kts 327°
2026-05-07 18:20 19.24075 -4.74374 37827 ft 455 kts 327°
2026-05-07 18:20 19.29735 -4.77138 37827 ft 455 kts 327°
2026-05-07 18:21 19.35581 -4.79993 37832 ft 455 kts 327°
2026-05-07 18:21 19.41301 -4.82790 37842 ft 455 kts 326°
2026-05-07 18:22 19.47055 -4.85607 37837 ft 456 kts 326°
2026-05-07 18:22 19.52809 -4.88426 37835 ft 456 kts 326°
2026-05-07 18:23 19.58568 -4.91248 37835 ft 456 kts 326°
2026-05-07 18:23 19.64330 -4.94075 37835 ft 456 kts 326°
2026-05-07 18:24 19.70014 -4.96867 37835 ft 456 kts 326°
2026-05-07 18:24 19.75853 -4.99736 37830 ft 457 kts 326°
2026-05-07 18:25 19.81637 -5.02583 37845 ft 459 kts 326°
2026-05-07 18:25 19.87427 -5.05432 37829 ft 459 kts 326°
2026-05-07 18:26 19.93177 -5.08263 37845 ft 459 kts 326°
2026-05-07 18:26 19.99013 -5.11140 37829 ft 459 kts 326°
2026-05-07 18:27 20.04768 -5.13979 37832 ft 459 kts 326°
2026-05-07 18:27 20.10609 -5.16864 37839 ft 460 kts 324°
2026-05-07 18:28 20.16423 -5.19739 37837 ft 461 kts 324°
2026-05-07 18:28 20.22205 -5.22598 37831 ft 461 kts 324°
2026-05-07 18:29 20.27988 -5.25460 37827 ft 461 kts 324°
2026-05-07 18:29 20.33887 -5.28382 37829 ft 461 kts 324°
2026-05-07 18:30 20.39636 -5.31233 37860 ft 461 kts 324°
2026-05-07 18:30 20.45489 -5.34137 37832 ft 462 kts 324°
2026-05-07 18:31 20.51316 -5.37032 37825 ft 462 kts 324°
2026-05-07 18:31 20.57100 -5.39908 37825 ft 462 kts 324°
2026-05-07 18:32 20.62982 -5.42834 37825 ft 462 kts 324°
2026-05-07 18:32 20.68814 -5.45737 37823 ft 463 kts 324°
2026-05-07 18:33 20.74646 -5.48643 37816 ft 462 kts 324°
2026-05-07 18:33 20.80478 -5.51551 37818 ft 462 kts 324°
2026-05-07 18:34 20.86310 -5.54462 37823 ft 462 kts 324°
2026-05-07 18:34 20.92139 -5.57373 37819 ft 463 kts 324°
2026-05-07 18:35 20.97971 -5.60289 37816 ft 463 kts 324°
2026-05-07 18:35 21.03803 -5.63207 37831 ft 462 kts 324°
2026-05-07 18:36 21.09603 -5.66110 37818 ft 460 kts 324°
2026-05-07 18:36 21.15409 -5.69017 37819 ft 458 kts 323°
2026-05-07 18:37 21.21187 -5.71917 37817 ft 458 kts 323°
2026-05-07 18:37 21.26955 -5.74814 37820 ft 458 kts 323°
2026-05-07 18:38 21.32677 -5.77690 37818 ft 457 kts 323°
2026-05-07 18:38 21.38429 -5.80584 37819 ft 457 kts 323°
2026-05-07 18:39 21.44205 -5.83492 37815 ft 457 kts 323°
2026-05-07 18:39 21.49967 -5.86395 37815 ft 457 kts 323°
2026-05-07 18:40 21.55730 -5.89301 37810 ft 458 kts 323°
2026-05-07 18:40 21.61490 -5.92208 37805 ft 457 kts 323°
2026-05-07 18:41 21.67250 -5.95118 37813 ft 457 kts 323°
2026-05-07 18:41 21.73010 -5.98030 37811 ft 457 kts 323°
2026-05-07 18:42 21.78742 -6.00930 37812 ft 456 kts 323°
2026-05-07 18:42 21.84507 -6.03851 37815 ft 457 kts 323°
2026-05-07 18:43 21.90252 -6.06764 37814 ft 457 kts 323°
2026-05-07 18:43 21.96003 -6.09683 37818 ft 457 kts 323°
2026-05-07 18:44 22.01749 -6.12601 37856 ft 457 kts 323°
2026-05-07 18:44 22.07459 -6.15505 37813 ft 458 kts 323°
2026-05-07 18:45 22.13285 -6.18470 37808 ft 459 kts 323°
2026-05-07 18:45 22.19065 -6.21412 37810 ft 459 kts 323°
2026-05-07 18:46 22.24832 -6.24349 37805 ft 459 kts 323°
2026-05-07 18:46 22.30619 -6.27301 37805 ft 459 kts 323°
2026-05-07 18:47 22.36337 -6.30220 37794 ft 460 kts 323°
2026-05-07 18:47 22.42185 -6.33211 37812 ft 461 kts 323°
2026-05-07 18:48 22.47945 -6.36158 37791 ft 461 kts 323°
2026-05-07 18:48 22.53743 -6.39125 37792 ft 461 kts 323°
2026-05-07 18:49 22.59542 -6.42096 37808 ft 461 kts 323°
2026-05-07 18:49 22.65341 -6.45071 37826 ft 461 kts 323°
2026-05-07 18:50 22.70157 -6.47538 37797 ft 459 kts 322°
2026-05-07 18:50 22.75883 -6.50468 37790 ft 456 kts 322°
2026-05-07 18:51 22.81636 -6.53433 37796 ft 455 kts 322°
2026-05-07 18:51 22.87352 -6.56385 37796 ft 455 kts 322°
2026-05-07 18:52 22.93056 -6.59329 37796 ft 455 kts 322°
2026-05-07 18:52 22.98792 -6.62287 37819 ft 455 kts 322°
2026-05-07 18:53 23.04480 -6.65217 37801 ft 450 kts 322°
2026-05-07 18:53 23.10118 -6.68130 37780 ft 448 kts 322°
2026-05-07 18:54 23.15745 -6.71045 37802 ft 449 kts 322°
2026-05-07 18:54 23.21390 -6.73970 37799 ft 449 kts 322°
2026-05-07 18:55 23.27027 -6.76891 37796 ft 449 kts 322°
2026-05-07 18:55 23.32659 -6.79812 37791 ft 448 kts 323°
2026-05-07 18:56 23.38259 -6.82718 37788 ft 447 kts 323°
2026-05-07 18:56 23.43893 -6.85646 37794 ft 447 kts 323°
2026-05-07 18:57 23.49443 -6.88534 37795 ft 447 kts 323°
2026-05-07 18:57 23.55107 -6.91483 37792 ft 447 kts 323°
2026-05-07 18:58 23.60739 -6.94419 37810 ft 447 kts 324°
2026-05-07 18:58 23.66275 -6.97311 37791 ft 449 kts 324°
2026-05-07 18:59 23.71985 -7.00293 37793 ft 449 kts 324°
2026-05-07 18:59 23.77628 -7.03243 37791 ft 449 kts 324°
2026-05-07 19:00 23.83185 -7.06151 37795 ft 449 kts 324°
2026-05-07 19:00 23.88838 -7.09112 37795 ft 449 kts 324°
2026-05-07 19:01 23.94492 -7.12078 37791 ft 450 kts 325°
2026-05-07 19:01 24.00147 -7.15050 37797 ft 452 kts 325°
2026-05-07 19:02 24.05806 -7.18022 37800 ft 452 kts 325°
2026-05-07 19:02 24.11499 -7.21014 37804 ft 452 kts 325°
2026-05-07 19:03 24.17164 -7.23996 37806 ft 452 kts 325°
2026-05-07 19:03 24.22828 -7.26982 37826 ft 452 kts 325°
2026-05-07 19:04 24.28490 -7.29968 37808 ft 451 kts 325°
2026-05-07 19:04 24.34142 -7.32953 37814 ft 451 kts 325°
2026-05-07 19:05 24.39790 -7.35939 37808 ft 451 kts 325°
2026-05-07 19:05 24.45439 -7.38928 37810 ft 451 kts 325°
2026-05-07 19:06 24.51090 -7.41921 37814 ft 451 kts 325°
2026-05-07 19:06 24.59576 -7.46421 37815 ft 451 kts 325°
2026-05-07 19:07 24.65163 -7.49388 37817 ft 451 kts 325°
2026-05-07 19:07 24.70871 -7.52422 37812 ft 451 kts 325°
2026-05-07 19:08 24.76519 -7.55427 37816 ft 451 kts 325°
2026-05-07 19:08 24.82139 -7.58420 37846 ft 451 kts 325°
2026-05-07 19:09 24.87772 -7.61423 37822 ft 450 kts 326°
2026-05-07 19:09 24.93389 -7.64421 37822 ft 449 kts 326°
2026-05-07 19:10 24.99028 -7.67433 37823 ft 449 kts 326°
2026-05-07 19:10 25.04652 -7.70441 37824 ft 449 kts 326°
2026-05-07 19:11 25.10251 -7.73439 37821 ft 449 kts 326°
2026-05-07 19:11 25.15895 -7.76464 37821 ft 449 kts 326°
2026-05-07 19:12 25.21521 -7.79483 37820 ft 450 kts 326°
2026-05-07 19:12 25.27137 -7.82499 37822 ft 452 kts 326°
2026-05-07 19:13 25.32829 -7.85560 37823 ft 454 kts 326°
2026-05-07 19:13 25.38509 -7.88614 37822 ft 454 kts 326°
2026-05-07 19:14 25.44192 -7.91673 37841 ft 454 kts 327°
2026-05-07 19:14 25.49875 -7.94736 37822 ft 454 kts 327°
2026-05-07 19:15 25.55556 -7.97802 37823 ft 455 kts 327°
2026-05-07 19:15 25.61200 -8.00850 37823 ft 454 kts 327°
2026-05-07 19:16 25.66924 -8.03946 37824 ft 454 kts 327°
2026-05-07 19:16 25.72606 -8.07023 37822 ft 454 kts 327°
2026-05-07 19:17 25.78286 -8.10102 37823 ft 454 kts 327°
2026-05-07 19:17 25.83966 -8.13184 37825 ft 454 kts 327°
2026-05-07 19:18 25.89598 -8.16244 37825 ft 455 kts 327°
2026-05-07 19:18 25.95334 -8.19362 37826 ft 455 kts 327°
2026-05-07 19:19 26.01010 -8.22452 37823 ft 454 kts 327°
2026-05-07 19:19 26.06687 -8.25546 37825 ft 454 kts 327°
2026-05-07 19:20 26.12322 -8.28620 37839 ft 454 kts 327°
2026-05-07 19:20 26.18000 -8.31720 37824 ft 454 kts 327°
2026-05-07 19:21 26.23647 -8.34808 37813 ft 454 kts 328°
2026-05-07 19:21 26.29331 -8.37919 37831 ft 453 kts 328°
2026-05-07 19:22 26.34983 -8.41015 37830 ft 452 kts 328°
2026-05-07 19:22 26.40623 -8.44108 37825 ft 451 kts 328°
2026-05-07 19:23 26.46261 -8.47205 37825 ft 451 kts 328°
2026-05-07 19:23 26.51841 -8.50272 37829 ft 451 kts 328°
2026-05-07 19:24 26.57520 -8.53398 37827 ft 451 kts 328°
2026-05-07 19:24 26.63128 -8.56488 37842 ft 451 kts 328°
2026-05-07 19:25 26.68770 -8.59599 37829 ft 450 kts 328°
2026-05-07 19:25 26.74383 -8.62698 37833 ft 450 kts 328°
2026-05-07 19:26 26.79976 -8.65790 37836 ft 450 kts 328°
2026-05-07 19:26 26.85551 -8.68876 37840 ft 450 kts 328°
2026-05-07 19:27 26.91209 -8.72010 37861 ft 450 kts 328°
2026-05-07 19:27 26.96802 -8.75110 37845 ft 446 kts 328°
2026-05-07 19:28 27.02309 -8.78167 37870 ft 445 kts 328°
2026-05-07 19:28 27.05092 -8.79714 38045 ft 445 kts 328°
2026-05-07 19:28 27.07863 -8.81255 38265 ft 444 kts 328°
2026-05-07 19:29 27.10627 -8.82793 38453 ft 444 kts 328°
2026-05-07 19:29 27.13368 -8.84319 38626 ft 443 kts 328°
2026-05-07 19:29 27.16148 -8.85867 38777 ft 443 kts 328°
2026-05-07 19:29 27.18908 -8.87405 38907 ft 442 kts 328°
2026-05-07 19:30 27.21661 -8.88940 39123 ft 441 kts 328°
2026-05-07 19:30 27.24378 -8.90455 39333 ft 438 kts 328°
2026-05-07 19:30 27.27096 -8.91971 39470 ft 438 kts 328°
2026-05-07 19:30 27.29853 -8.93512 39580 ft 438 kts 328°
2026-05-07 19:31 27.32593 -8.95044 39686 ft 439 kts 328°
2026-05-07 19:31 27.35326 -8.96572 39817 ft 439 kts 328°
2026-05-07 19:31 27.40799 -8.99637 39874 ft 442 kts 328°
2026-05-07 19:32 27.46299 -9.02718 39878 ft 442 kts 328°
2026-05-07 19:32 27.51810 -9.05807 39879 ft 441 kts 327°
2026-05-07 19:33 27.57302 -9.08891 39881 ft 441 kts 327°
2026-05-07 19:33 27.62875 -9.11743 39887 ft 446 kts 335°
2026-05-07 19:34 27.69073 -9.13098 39887 ft 460 kts 351°
2026-05-07 19:34 27.75540 -9.12465 39892 ft 471 kts
2026-05-07 19:35 27.82004 -9.11173 39897 ft 473 kts
2026-05-07 19:35 27.88488 -9.09779 39895 ft 473 kts
2026-05-07 19:36 27.94887 -9.08436 39883 ft 473 kts
2026-05-07 19:36 28.01396 -9.07100 39882 ft 473 kts
2026-05-07 19:37 28.07877 -9.05780 39914 ft 473 kts
2026-05-07 19:37 28.13265 -9.04681 39878 ft 473 kts
2026-05-07 19:38 28.19688 -9.03368 39875 ft 473 kts
2026-05-07 19:38 28.26211 -9.02032 39881 ft 473 kts
2026-05-07 19:39 28.32671 -9.00707 39874 ft 473 kts
2026-05-07 19:39 28.39111 -8.99384 39864 ft 473 kts
2026-05-07 19:40 28.45627 -8.98044 39864 ft 473 kts
2026-05-07 19:40 28.52092 -8.96714 39854 ft 473 kts
2026-05-07 19:41 28.58567 -8.95379 39855 ft 473 kts
2026-05-07 19:41 28.65040 -8.94044 39837 ft 472 kts
2026-05-07 19:42 28.71496 -8.92710 39838 ft 473 kts
2026-05-07 19:42 28.77995 -8.91365 39829 ft 473 kts
2026-05-07 19:43 28.84440 -8.90030 39825 ft 473 kts
2026-05-07 19:43 28.90951 -8.88679 39826 ft 473 kts
2026-05-07 19:44 28.97429 -8.87333 39832 ft 473 kts
2026-05-07 19:44 29.03861 -8.85997 39820 ft 474 kts
2026-05-07 19:45 29.10415 -8.84633 39821 ft 475 kts
2026-05-07 19:45 29.16911 -8.83279 39824 ft 475 kts
2026-05-07 19:46 29.23344 -8.81935 39830 ft 475 kts
2026-05-07 19:46 29.29910 -8.80563 39830 ft 476 kts
2026-05-07 19:47 29.36379 -8.79209 39824 ft 476 kts
2026-05-07 19:47 29.42870 -8.77848 39849 ft 476 kts
2026-05-07 19:48 29.49462 -8.76465 39846 ft 476 kts
2026-05-07 19:48 29.55977 -8.75097 39877 ft 476 kts
2026-05-07 19:49 29.62471 -8.73730 39864 ft 477 kts
2026-05-07 19:49 29.69031 -8.72349 39889 ft 477 kts
2026-05-07 19:50 29.75467 -8.70991 39892 ft 477 kts
2026-05-07 19:50 29.82058 -8.69598 39906 ft 476 kts
2026-05-07 19:51 29.88603 -8.68215 39921 ft 478 kts
2026-05-07 19:51 29.95147 -8.66830 39918 ft 478 kts
2026-05-07 19:52 30.01660 -8.65449 39928 ft 478 kts
2026-05-07 19:52 30.08237 -8.64051 39915 ft 478 kts
2026-05-07 19:53 30.14700 -8.62677 39935 ft 479 kts
2026-05-07 19:53 30.21295 -8.61275 39936 ft 479 kts
2026-05-07 19:54 30.27856 -8.59877 39923 ft 479 kts
2026-05-07 19:54 30.34383 -8.58482 39946 ft 480 kts
2026-05-07 19:55 30.40982 -8.57069 39925 ft 480 kts
2026-05-07 19:55 30.47551 -8.55662 39933 ft 480 kts
2026-05-07 19:56 30.54097 -8.54258 39931 ft 480 kts
2026-05-07 19:56 30.60683 -8.52845 39943 ft 480 kts
2026-05-07 19:57 30.67239 -8.51436 39947 ft 480 kts
2026-05-07 19:57 30.73809 -8.50022 39939 ft 481 kts
2026-05-07 19:58 30.80404 -8.48600 39945 ft 482 kts
2026-05-07 19:58 30.87002 -8.47176 39953 ft 482 kts
2026-05-07 19:59 30.93559 -8.45757 39950 ft 482 kts
2026-05-07 19:59 31.00190 -8.44323 39960 ft 483 kts
2026-05-07 20:00 31.06809 -8.42891 39962 ft 485 kts
2026-05-07 20:00 31.13440 -8.41452 39958 ft 486 kts
2026-05-07 20:01 31.20097 -8.40005 39951 ft 486 kts
2026-05-07 20:01 31.26734 -8.38558 39965 ft 486 kts
2026-05-07 20:02 31.33390 -8.37106 39944 ft 486 kts
2026-05-07 20:02 31.40048 -8.35653 39946 ft 487 kts
2026-05-07 20:03 31.46696 -8.34199 39932 ft 487 kts
2026-05-07 20:03 31.53359 -8.32739 39952 ft 486 kts
2026-05-07 20:04 31.59936 -8.31297 39920 ft 487 kts
2026-05-07 20:04 31.66627 -8.29829 39927 ft 487 kts
2026-05-07 20:05 31.73338 -8.28353 39923 ft 487 kts
2026-05-07 20:05 31.79957 -8.26895 39938 ft 487 kts
2026-05-07 20:06 31.86633 -8.25424 39931 ft 489 kts
2026-05-07 20:06 31.93308 -8.23951 39925 ft 490 kts
2026-05-07 20:07 32.00037 -8.22461 39933 ft 490 kts
2026-05-07 20:07 32.06668 -8.20991 39936 ft 490 kts
2026-05-07 20:08 32.13456 -8.19515 39933 ft 489 kts
2026-05-07 20:08 32.20181 -8.18361 39930 ft 488 kts 359°
2026-05-07 20:09 32.26861 -8.17330 39932 ft 488 kts 359°
2026-05-07 20:10 32.37004 -8.15728 39957 ft 488 kts 359°
2026-05-07 20:10 32.43737 -8.14636 39940 ft 490 kts 359°
2026-05-07 20:11 32.50496 -8.13533 39941 ft 490 kts 359°
2026-05-07 20:11 32.57266 -8.12426 39944 ft 490 kts 359°
2026-05-07 20:12 32.63935 -8.11335 39971 ft 491 kts 359°
2026-05-07 20:12 32.70767 -8.10217 39953 ft 492 kts 359°
2026-05-07 20:13 32.77593 -8.09098 39955 ft 493 kts 359°
2026-05-07 20:13 32.84382 -8.07980 39956 ft 493 kts 359°
2026-05-07 20:14 32.91154 -8.06725 39974 ft 499 kts
2026-05-07 20:14 32.97731 -8.03635 39959 ft 514 kts 20°
2026-05-07 20:15 33.04066 -7.99620 39962 ft 518 kts 22°
2026-05-07 20:15 33.10295 -7.95462 39960 ft 518 kts 23°
2026-05-07 20:16 33.16583 -7.91266 39961 ft 518 kts 22°
2026-05-07 20:16 33.22919 -7.87070 39966 ft 518 kts 22°
2026-05-07 20:17 33.29225 -7.82904 39970 ft 518 kts 22°
2026-05-07 20:17 33.35487 -7.78764 39971 ft 518 kts 22°
2026-05-07 20:18 33.41843 -7.74552 39971 ft 518 kts 22°
2026-05-07 20:18 33.48155 -7.70363 39972 ft 519 kts 23°
2026-05-07 20:19 33.54489 -7.66223 39975 ft 518 kts 21°
2026-05-07 20:19 33.60892 -7.62329 39971 ft 517 kts 20°
2026-05-07 20:20 33.67357 -7.58461 39970 ft 517 kts 20°
2026-05-07 20:20 33.73778 -7.54588 39982 ft 516 kts 20°
2026-05-07 20:21 33.80177 -7.50700 39964 ft 516 kts 20°
2026-05-07 20:21 33.86597 -7.46785 39963 ft 517 kts 20°
2026-05-07 20:22 33.93006 -7.42869 39974 ft 516 kts 20°
2026-05-07 20:22 33.99378 -7.38971 39992 ft 516 kts 20°
2026-05-07 20:23 34.04699 -7.35711 39983 ft 517 kts 21°
2026-05-07 20:23 34.11156 -7.31750 39983 ft 517 kts 21°
2026-05-07 20:24 34.17550 -7.27818 39984 ft 517 kts 21°
2026-05-07 20:24 34.23927 -7.23890 39984 ft 518 kts 21°
2026-05-07 20:25 34.30400 -7.19896 39984 ft 517 kts 21°
2026-05-07 20:25 34.36794 -7.15942 39985 ft 516 kts 21°
2026-05-07 20:26 34.43186 -7.11985 39981 ft 516 kts 21°
2026-05-07 20:26 34.49542 -7.08043 39983 ft 516 kts 21°
2026-05-07 20:27 34.55964 -7.04053 39986 ft 516 kts 21°
2026-05-07 20:27 34.62353 -7.00090 39981 ft 516 kts 21°
2026-05-07 20:28 34.68715 -6.96191 39979 ft 516 kts 21°
2026-05-07 20:28 34.75173 -6.92240 39981 ft 516 kts 21°
2026-05-07 20:29 34.81587 -6.88304 39980 ft 516 kts 21°
2026-05-07 20:29 34.87887 -6.84428 39975 ft 517 kts 21°
2026-05-07 20:30 34.94413 -6.80402 39963 ft 515 kts 21°
2026-05-07 20:30 35.00664 -6.76540 39963 ft 515 kts 21°
2026-05-07 20:31 35.07118 -6.72546 39989 ft 514 kts 21°
2026-05-07 20:31 35.13563 -6.68552 39966 ft 515 kts 21°
2026-05-07 20:32 35.19960 -6.64580 39968 ft 515 kts 21°
2026-05-07 20:32 35.26332 -6.60616 39967 ft 515 kts 21°
2026-05-07 20:33 35.32690 -6.56654 39985 ft 515 kts 22°
2026-05-07 20:33 35.39119 -6.52639 39968 ft 515 kts 22°
2026-05-07 20:34 35.45461 -6.48663 39967 ft 515 kts 22°
2026-05-07 20:34 35.51799 -6.44562 39961 ft 516 kts 23°
2026-05-07 20:35 35.58139 -6.40404 39966 ft 515 kts 23°
2026-05-07 20:35 35.64449 -6.36265 39959 ft 515 kts 23°
2026-05-07 20:36 35.70738 -6.32144 39964 ft 515 kts 23°
2026-05-07 20:36 35.77116 -6.27970 39964 ft 515 kts 22°
2026-05-07 20:37 35.83536 -6.24160 39968 ft 507 kts 12°
2026-05-07 20:37 35.90231 -6.21840 39966 ft 502 kts
2026-05-07 20:38 35.97074 -6.19812 39966 ft 501 kts
2026-05-07 20:38 36.03864 -6.17859 39967 ft 502 kts
2026-05-07 20:39 36.10564 -6.15909 39979 ft 502 kts
2026-05-07 20:39 36.17431 -6.13888 39964 ft 502 kts
2026-05-07 20:40 36.24256 -6.11868 39958 ft 502 kts
2026-05-07 20:40 36.30936 -6.09886 39954 ft 502 kts
2026-05-07 20:41 36.37747 -6.07864 39963 ft 502 kts
2026-05-07 20:41 36.44541 -6.05842 39953 ft 501 kts
2026-05-07 20:42 36.51289 -6.03832 39949 ft 501 kts
2026-05-07 20:42 36.58106 -6.01798 39968 ft 501 kts
2026-05-07 20:43 36.64776 -5.99805 39970 ft 502 kts
2026-05-07 20:43 36.71623 -5.97754 39974 ft 503 kts
2026-05-07 20:44 36.78492 -5.95693 39973 ft 503 kts
2026-05-07 20:44 36.85238 -5.93664 39989 ft 503 kts
2026-05-07 20:45 36.92031 -5.91619 39958 ft 503 kts
2026-05-07 20:45 36.98846 -5.89562 39953 ft 502 kts
2026-05-07 20:46 37.05641 -5.87508 39947 ft 503 kts
2026-05-07 20:46 37.12443 -5.85448 39956 ft 503 kts
2026-05-07 20:47 37.19176 -5.83405 39953 ft 502 kts
2026-05-07 20:47 37.26030 -5.81322 39952 ft 503 kts
2026-05-07 20:48 37.32827 -5.79253 39946 ft 503 kts
2026-05-07 20:48 37.39529 -5.77208 39949 ft 503 kts
2026-05-07 20:49 37.46194 -5.74111 39949 ft 511 kts 18°
2026-05-07 20:49 37.52713 -5.70290 39946 ft 513 kts 20°
2026-05-07 20:50 37.59127 -5.66373 39967 ft 511 kts 20°
2026-05-07 20:50 37.65437 -5.62510 39947 ft 511 kts 20°
2026-05-07 20:51 37.71891 -5.58575 39946 ft 511 kts 20°
2026-05-07 20:51 37.78305 -5.54668 39946 ft 512 kts 20°
2026-05-07 20:52 37.84651 -5.50798 39955 ft 512 kts 20°
2026-05-07 20:52 37.91104 -5.46853 39942 ft 512 kts 20°
2026-05-07 20:53 37.97399 -5.42997 39943 ft 512 kts 20°
2026-05-07 20:53 38.03852 -5.39036 39944 ft 512 kts 20°
2026-05-07 20:54 38.10323 -5.35056 39945 ft 512 kts 20°
2026-05-07 20:54 38.16749 -5.31096 39934 ft 511 kts 20°
2026-05-07 20:55 38.23123 -5.27159 39933 ft 510 kts 20°
2026-05-07 20:55 38.29482 -5.23225 39929 ft 511 kts 20°
2026-05-07 20:56 38.35924 -5.19233 39920 ft 511 kts 20°
2026-05-07 20:56 38.42311 -5.15266 39920 ft 511 kts 20°
2026-05-07 20:57 38.48622 -5.11339 39919 ft 511 kts 20°
2026-05-07 20:57 38.55112 -5.07603 39944 ft 507 kts 16°
2026-05-07 20:58 38.61707 -5.04276 39927 ft 506 kts 14°
2026-05-07 20:58 38.68175 -5.01055 39909 ft 506 kts 15°
2026-05-07 20:59 38.74764 -4.97713 39905 ft 507 kts 15°
2026-05-07 20:59 38.81318 -4.94346 39912 ft 506 kts 15°
2026-05-07 21:00 38.87783 -4.91009 39917 ft 504 kts 15°
2026-05-07 21:00 38.94332 -4.87625 39918 ft 503 kts 15°
2026-05-07 21:01 39.00825 -4.84267 39916 ft 503 kts 15°
2026-05-07 21:01 39.07315 -4.80904 39918 ft 503 kts 15°
2026-05-07 21:02 39.13793 -4.77540 39913 ft 503 kts 15°
2026-05-07 21:02 39.20178 -4.74218 39919 ft 503 kts 15°
2026-05-07 21:03 39.26733 -4.70801 39942 ft 503 kts 15°
2026-05-07 21:03 39.33283 -4.67378 39927 ft 503 kts 15°
2026-05-07 21:04 39.39766 -4.63985 39926 ft 503 kts 15°
2026-05-07 21:04 39.46151 -4.60637 39927 ft 503 kts 15°
2026-05-07 21:05 39.52699 -4.57196 39937 ft 503 kts 15°
2026-05-07 21:05 39.59206 -4.53768 39935 ft 500 kts 15°
2026-05-07 21:06 39.65537 -4.50426 39933 ft 499 kts 15°
2026-05-07 21:06 39.72040 -4.46990 39952 ft 499 kts 15°
2026-05-07 21:07 39.78492 -4.43572 39942 ft 498 kts 15°
2026-05-07 21:07 39.84796 -4.40221 39938 ft 497 kts 15°
2026-05-07 21:08 39.91253 -4.36781 39942 ft 497 kts 15°
2026-05-07 21:08 39.97654 -4.33336 39948 ft 498 kts 17°
2026-05-07 21:09 40.03921 -4.29612 39940 ft 499 kts 19°
2026-05-07 21:09 40.09112 -4.26398 39943 ft 499 kts 19°
2026-05-07 21:10 40.15455 -4.22472 39952 ft 499 kts 19°
2026-05-07 21:10 40.21645 -4.18666 39954 ft 498 kts 19°
2026-05-07 21:11 40.28003 -4.14765 39951 ft 497 kts 19°
2026-05-07 21:11 40.37284 -4.09062 39965 ft 497 kts 19°
2026-05-07 21:12 40.43637 -4.05146 39969 ft 497 kts 19°
2026-05-07 21:12 40.49899 -4.01275 39976 ft 494 kts 19°
2026-05-07 21:13 40.56110 -3.97430 39972 ft 494 kts 19°
2026-05-07 21:13 40.62330 -3.93573 39977 ft 494 kts 19°
2026-05-07 21:14 40.68558 -3.89703 39979 ft 494 kts 19°
2026-05-07 21:14 40.74782 -3.85826 39977 ft 495 kts 19°
2026-05-07 21:15 40.80934 -3.81986 39979 ft 495 kts 19°
2026-05-07 21:15 40.87207 -3.78061 39984 ft 494 kts 19°
2026-05-07 21:16 40.93430 -3.74160 39984 ft 493 kts 19°
2026-05-07 21:16 40.99536 -3.70325 39979 ft 494 kts 19°
2026-05-07 21:17 41.05816 -3.66372 39975 ft 494 kts 19°
2026-05-07 21:17 41.11994 -3.62476 39979 ft 493 kts 20°
2026-05-07 21:18 41.18153 -3.58736 39974 ft 491 kts 17°
2026-05-07 21:18 41.24529 -3.55261 39972 ft 490 kts 16°
2026-05-07 21:19 41.30845 -3.51883 39985 ft 490 kts 17°
2026-05-07 21:19 41.37111 -3.48489 39971 ft 490 kts 17°
2026-05-07 21:20 41.43464 -3.45011 39970 ft 489 kts 17°
2026-05-07 21:20 41.49759 -3.41548 39970 ft 489 kts 17°
2026-05-07 21:21 41.55952 -3.38133 39970 ft 487 kts 17°
2026-05-07 21:21 41.62254 -3.34650 39965 ft 485 kts 17°
2026-05-07 21:22 41.68520 -3.31183 39967 ft 485 kts 17°
2026-05-07 21:22 41.74660 -3.27779 39974 ft 485 kts 18°
2026-05-07 21:23 41.80963 -3.24276 39975 ft 483 kts 18°
2026-05-07 21:23 41.87187 -3.20810 39971 ft 483 kts 18°
2026-05-07 21:24 41.93352 -3.17370 39986 ft 483 kts 18°
2026-05-07 21:24 41.99593 -3.13880 39979 ft 482 kts 18°
2026-05-07 21:25 42.05680 -3.10468 39979 ft 481 kts 18°
2026-05-07 21:25 42.11943 -3.06951 39974 ft 481 kts 18°
2026-05-07 21:26 42.18127 -3.03471 39978 ft 482 kts 19°
2026-05-07 21:26 42.24277 -3.00003 39972 ft 482 kts 19°
2026-05-07 21:27 42.30462 -2.96508 39972 ft 482 kts 19°
2026-05-07 21:27 42.36572 -2.93046 39970 ft 482 kts 19°
2026-05-07 21:28 42.42817 -2.89429 39969 ft 484 kts 23°
2026-05-07 21:28 42.48428 -2.84290 39962 ft 490 kts 36°
2026-05-07 21:29 42.53614 -2.78262 39957 ft 492 kts 38°
2026-05-07 21:29 42.58668 -2.72105 39964 ft 492 kts 39°
2026-05-07 21:30 42.63735 -2.65915 39959 ft 492 kts 39°
2026-05-07 21:30 42.68870 -2.59669 39954 ft 494 kts 39°
2026-05-07 21:31 42.74040 -2.53390 39953 ft 494 kts 39°
2026-05-07 21:31 42.79166 -2.47153 39953 ft 494 kts 39°
2026-05-07 21:32 42.84222 -2.40986 39954 ft 494 kts 39°
2026-05-07 21:32 42.89383 -2.34675 39956 ft 494 kts 39°
2026-05-07 21:33 42.94522 -2.28374 39948 ft 494 kts 39°
2026-05-07 21:33 42.99554 -2.22191 39960 ft 496 kts 39°
2026-05-07 21:34 43.04730 -2.15809 39951 ft 497 kts 39°
2026-05-07 21:34 43.09897 -2.09420 39946 ft 497 kts 40°
2026-05-07 21:35 43.15024 -2.03070 39943 ft 497 kts 40°
2026-05-07 21:35 43.20088 -1.96787 39941 ft 497 kts 40°
2026-05-07 21:36 43.25231 -1.90391 39939 ft 496 kts 40°
2026-05-07 21:36 43.30374 -1.84155 39919 ft 497 kts 34°
2026-05-07 21:37 43.36202 -1.79048 39922 ft 495 kts 28°
2026-05-07 21:37 43.42072 -1.74012 39941 ft 496 kts 31°
2026-05-07 21:38 43.47834 -1.68790 39949 ft 495 kts 31°
2026-05-07 21:38 43.53520 -1.63596 39948 ft 495 kts 31°
2026-05-07 21:39 43.59316 -1.58319 39948 ft 495 kts 31°
2026-05-07 21:39 43.65054 -1.53100 39924 ft 495 kts 31°
2026-05-07 21:40 43.70790 -1.47878 39927 ft 496 kts 31°
2026-05-07 21:40 43.76587 -1.42586 39935 ft 497 kts 31°
2026-05-07 21:41 43.82243 -1.37410 39939 ft 497 kts 31°
2026-05-07 21:41 43.88062 -1.32071 39943 ft 497 kts 31°
2026-05-07 21:42 43.93878 -1.26723 39941 ft 497 kts 31°
2026-05-07 21:42 43.99623 -1.21427 39946 ft 497 kts 31°
2026-05-07 21:43 44.05360 -1.16127 39947 ft 497 kts 32°
2026-05-07 21:43 44.11147 -1.10767 39947 ft 498 kts 32°
2026-05-07 21:44 44.16800 -1.05519 39950 ft 500 kts 32°
2026-05-07 21:44 44.22645 -1.00080 39957 ft 500 kts 32°
2026-05-07 21:45 44.28450 -0.94665 39954 ft 500 kts 32°
2026-05-07 21:45 44.34147 -0.89338 39959 ft 500 kts 32°
2026-05-07 21:46 44.40136 -0.84184 39964 ft 497 kts 22°
2026-05-07 21:46 44.46533 -0.80579 39966 ft 495 kts 18°
2026-05-07 21:47 44.52914 -0.77348 39969 ft 495 kts 17°
2026-05-07 21:47 44.59497 -0.74082 39973 ft 496 kts 17°
2026-05-07 21:48 44.65934 -0.70862 39979 ft 496 kts 17°
2026-05-07 21:48 44.72507 -0.67544 39979 ft 496 kts 17°
2026-05-07 21:49 44.78968 -0.64266 39983 ft 496 kts 17°
2026-05-07 21:49 44.85208 -0.61094 39980 ft 496 kts 17°
2026-05-07 21:50 44.91696 -0.57788 39983 ft 496 kts 17°
2026-05-07 21:50 44.98151 -0.54492 39963 ft 497 kts 17°
2026-05-07 21:51 45.04656 -0.51163 39964 ft 497 kts 18°
2026-05-07 21:51 45.11126 -0.47842 39973 ft 497 kts 18°
2026-05-07 21:52 45.17652 -0.44485 39974 ft 497 kts 18°
2026-05-07 21:52 45.24144 -0.41137 39973 ft 496 kts 18°
2026-05-07 21:53 45.30625 -0.37788 39969 ft 495 kts 18°
2026-05-07 21:53 45.37103 -0.34431 39969 ft 495 kts 18°
2026-05-07 21:54 45.43537 -0.31090 39966 ft 495 kts 18°
2026-05-07 21:54 45.50009 -0.27721 39966 ft 495 kts 18°
2026-05-07 21:55 45.56475 -0.24346 39967 ft 495 kts 18°
2026-05-07 21:55 45.62946 -0.20961 39967 ft 495 kts 18°
2026-05-07 21:56 45.69409 -0.17571 39965 ft 495 kts 18°
2026-05-07 21:56 45.75867 -0.14175 39969 ft 495 kts 18°
2026-05-07 21:57 45.81235 -0.11347 39966 ft 495 kts 18°
2026-05-07 21:57 45.87695 -0.07934 39966 ft 494 kts 18°
2026-05-07 21:58 45.94149 -0.04517 39972 ft 494 kts 18°
2026-05-07 21:58 46.00646 -0.01068 39973 ft 494 kts 18°
2026-05-07 21:59 46.07049 0.02339 39979 ft 494 kts 18°
2026-05-07 21:59 46.13503 0.05782 39980 ft 495 kts 18°
2026-05-07 22:00 46.19958 0.09234 39984 ft 495 kts 18°
2026-05-07 22:00 46.26404 0.12691 39982 ft 494 kts 18°
2026-05-07 22:01 46.32847 0.16154 39990 ft 494 kts 18°
2026-05-07 22:01 46.39295 0.19629 39991 ft 494 kts 18°
2026-05-07 22:02 46.45734 0.23107 39986 ft 494 kts 19°
2026-05-07 22:02 46.52174 0.26595 39993 ft 494 kts 19°
2026-05-07 22:03 46.58669 0.29821 39991 ft 492 kts 12°
2026-05-07 22:03 46.65335 0.32067 39990 ft 492 kts 10°
2026-05-07 22:04 46.72028 0.34128 39992 ft 492 kts
2026-05-07 22:04 46.78687 0.36147 39994 ft 492 kts
2026-05-07 22:05 46.85386 0.38196 39997 ft 492 kts
2026-05-07 22:05 46.92085 0.40263 39998 ft 492 kts
2026-05-07 22:06 46.98780 0.42338 39996 ft 492 kts 10°
2026-05-07 22:06 47.02128 0.43378 39787 ft 491 kts 10°
2026-05-07 22:06 47.05476 0.44312 39270 ft 489 kts
2026-05-07 22:07 47.08868 0.44604 38638 ft 489 kts 355°
2026-05-07 22:07 47.12252 0.44181 37926 ft 488 kts 351°
2026-05-07 22:07 47.15604 0.43522 37387 ft 485 kts 349°
2026-05-07 22:07 47.18930 0.42755 36873 ft 483 kts 348°
2026-05-07 22:08 47.22239 0.41936 36324 ft 481 kts 347°
2026-05-07 22:08 47.25526 0.41102 35860 ft 477 kts 347°
2026-05-07 22:08 47.28786 0.40275 35441 ft 473 kts 347°
2026-05-07 22:08 47.32012 0.39465 35054 ft 468 kts 347°
2026-05-07 22:09 47.35212 0.38668 34667 ft 464 kts 347°
2026-05-07 22:09 47.38380 0.37886 34278 ft 460 kts 347°
2026-05-07 22:09 47.41517 0.37114 33902 ft 456 kts 347°
2026-05-07 22:09 47.44643 0.36345 33457 ft 455 kts 347°
2026-05-07 22:10 47.47764 0.35576 33021 ft 455 kts 347°
2026-05-07 22:10 47.50884 0.34803 32593 ft 455 kts 348°
2026-05-07 22:10 47.54012 0.34026 32179 ft 456 kts 348°
2026-05-07 22:10 47.57142 0.33249 31755 ft 456 kts 348°
2026-05-07 22:11 47.60270 0.32472 31342 ft 456 kts 348°
2026-05-07 22:11 47.63405 0.31692 30952 ft 456 kts 348°
2026-05-07 22:11 47.66536 0.30912 30545 ft 456 kts 348°
2026-05-07 22:11 47.69670 0.30130 30165 ft 456 kts 348°
2026-05-07 22:12 47.72798 0.29350 29715 ft 454 kts 348°
2026-05-07 22:12 47.75900 0.28610 29227 ft 449 kts 351°
2026-05-07 22:12 47.79009 0.28494 28747 ft 447 kts
2026-05-07 22:12 47.82026 0.29532 28252 ft 445 kts 21°
2026-05-07 22:13 47.84748 0.31667 27771 ft 442 kts 32°
2026-05-07 22:13 47.87276 0.34232 27292 ft 438 kts 35°
2026-05-07 22:13 47.89746 0.36843 26817 ft 434 kts 35°
2026-05-07 22:13 47.92163 0.39406 26366 ft 430 kts 35°
2026-05-07 22:14 47.94590 0.41972 25904 ft 426 kts 35°
2026-05-07 22:14 47.97026 0.44538 25443 ft 422 kts 35°
2026-05-07 22:14 47.99423 0.47061 24990 ft 419 kts 35°
2026-05-07 22:14 48.01793 0.49556 24570 ft 415 kts 35°
2026-05-07 22:15 48.04113 0.51999 24147 ft 412 kts 35°
2026-05-07 22:15 48.06435 0.54446 23747 ft 408 kts 35°
2026-05-07 22:15 48.08745 0.56883 23336 ft 403 kts 35°
2026-05-07 22:15 48.11027 0.59292 22890 ft 399 kts 35°
2026-05-07 22:16 48.13283 0.61677 22452 ft 395 kts 35°
2026-05-07 22:16 48.15515 0.64039 22025 ft 391 kts 35°
2026-05-07 22:16 48.17722 0.66377 21601 ft 387 kts 36°
2026-05-07 22:16 48.19899 0.68686 21186 ft 383 kts 36°
2026-05-07 22:17 48.22073 0.70993 20766 ft 379 kts 36°
2026-05-07 22:17 48.24216 0.73270 20377 ft 376 kts 36°
2026-05-07 22:17 48.26339 0.75529 19968 ft 373 kts 36°
2026-05-07 22:17 48.28444 0.77770 19585 ft 369 kts 36°
2026-05-07 22:18 48.30530 0.79993 19189 ft 366 kts 36°
2026-05-07 22:18 48.34482 0.84691 18413 ft 359 kts 51°
2026-05-07 22:18 48.35863 0.87780 17974 ft 355 kts 62°
2026-05-07 22:19 48.37022 0.91035 17538 ft 352 kts 64°
2026-05-07 22:19 48.38137 0.94292 17126 ft 349 kts 64°
2026-05-07 22:19 48.39240 0.97519 16705 ft 346 kts 64°
2026-05-07 22:19 48.40339 1.00722 16301 ft 343 kts 64°
2026-05-07 22:20 48.41432 1.03900 15894 ft 341 kts 64°
2026-05-07 22:20 48.42517 1.07057 15499 ft 338 kts 64°
2026-05-07 22:20 48.43604 1.10173 15121 ft 335 kts 61°
2026-05-07 22:20 48.44900 1.13054 14738 ft 333 kts 54°
2026-05-07 22:21 48.46288 1.15840 14394 ft 329 kts 53°
2026-05-07 22:21 48.47674 1.18545 14089 ft 324 kts 53°
2026-05-07 22:21 48.49051 1.21199 13809 ft 319 kts 52°
2026-05-07 22:21 48.50412 1.23809 13501 ft 314 kts 52°
2026-05-07 22:22 48.51755 1.26380 13169 ft 310 kts 52°
2026-05-07 22:22 48.53082 1.28918 12845 ft 306 kts 52°
2026-05-07 22:22 48.54392 1.31423 12523 ft 302 kts 51°
2026-05-07 22:22 48.55684 1.33895 12216 ft 299 kts 51°
2026-05-07 22:23 48.56967 1.36350 11900 ft 297 kts 51°
2026-05-07 22:23 48.58243 1.38794 11606 ft 295 kts 51°
2026-05-07 22:23 48.59490 1.41186 11317 ft 294 kts 51°
2026-05-07 22:23 48.60772 1.43645 11011 ft 292 kts 51°
2026-05-07 22:24 48.62009 1.46020 10714 ft 291 kts 51°
2026-05-07 22:24 48.63253 1.48411 10419 ft 289 kts 51°
2026-05-07 22:24 48.64491 1.50794 10135 ft 288 kts 51°
2026-05-07 22:24 48.65725 1.53170 9824 ft 286 kts 51°
2026-05-07 22:25 48.66952 1.55534 9537 ft 285 kts 51°
2026-05-07 22:25 48.68166 1.57875 9264 ft 283 kts 51°
2026-05-07 22:25 48.69381 1.60220 8986 ft 281 kts 51°
2026-05-07 22:25 48.70586 1.62548 8715 ft 279 kts 51°
2026-05-07 22:26 48.71779 1.64855 8472 ft 278 kts 51°
2026-05-07 22:26 48.72965 1.67151 8226 ft 276 kts 51°
2026-05-07 22:26 48.74144 1.69435 7958 ft 274 kts 51°
2026-05-07 22:26 48.75312 1.71699 7711 ft 272 kts 51°
2026-05-07 22:27 48.76477 1.73959 7462 ft 271 kts 51°
2026-05-07 22:27 48.77632 1.76202 7214 ft 269 kts 51°
2026-05-07 22:27 48.78783 1.78440 6966 ft 268 kts 51°
2026-05-07 22:27 48.79926 1.80661 6718 ft 266 kts 51°
2026-05-07 22:28 48.81058 1.82865 6478 ft 264 kts 51°
2026-05-07 22:28 48.82182 1.85056 6213 ft 262 kts 51°
2026-05-07 22:28 48.83283 1.87202 5965 ft 261 kts 51°
2026-05-07 22:28 48.84407 1.89395 5683 ft 260 kts 51°
2026-05-07 22:29 48.85520 1.91569 5420 ft 259 kts 51°
2026-05-07 22:29 48.86623 1.93725 5173 ft 258 kts 52°
2026-05-07 22:29 48.87716 1.95864 4989 ft 257 kts 52°
2026-05-07 22:29 48.88812 1.98008 4972 ft 257 kts 52°
2026-05-07 22:30 48.89893 2.00126 4971 ft 257 kts 52°
2026-05-07 22:30 48.90996 2.02290 4972 ft 257 kts 52°
2026-05-07 22:30 48.92098 2.04452 4991 ft 257 kts 52°
2026-05-07 22:30 48.93193 2.06603 4991 ft 257 kts 52°
2026-05-07 22:31 48.94285 2.08750 4991 ft 257 kts 52°
2026-05-07 22:31 48.95380 2.10903 4992 ft 257 kts 52°
2026-05-07 22:31 48.96427 2.13103 4989 ft 257 kts 60°
2026-05-07 22:31 48.97064 2.15633 4992 ft 257 kts 77°
2026-05-07 22:32 48.97288 2.18327 4993 ft 257 kts 86°
2026-05-07 22:32 48.97407 2.21015 4983 ft 258 kts 85°
2026-05-07 22:32 48.97529 2.23740 4781 ft 256 kts 85°
2026-05-07 22:32 48.97669 2.26410 4425 ft 256 kts 85°
2026-05-07 22:33 48.97821 2.29109 4000 ft 252 kts 85°
2026-05-07 22:33 48.97961 2.31708 3615 ft 239 kts 85°
2026-05-07 22:33 48.98091 2.34157 3286 ft 226 kts 85°
2026-05-07 22:33 48.98212 2.36414 2994 ft 214 kts 86°
2026-05-07 22:34 48.98330 2.38616 2743 ft 202 kts 85°
2026-05-07 22:34 48.98440 2.40666 2459 ft 189 kts 86°
2026-05-07 22:34 48.98547 2.42614 2201 ft 178 kts 85°
2026-05-07 22:34 48.98654 2.44415 1990 ft 165 kts 86°
2026-05-07 22:35 48.98760 2.46109 1756 ft 155 kts 86°
2026-05-07 22:35 48.98832 2.47696 1521 ft 145 kts 86°
2026-05-07 22:35 48.98918 2.49183 1332 ft 136 kts 86°
2026-05-07 22:35 48.98983 2.50584 1163 ft 132 kts 86°
2026-05-07 22:36 48.99053 2.51966 1001 ft 131 kts 85°
2026-05-07 22:36 48.99124 2.53363 805 ft 133 kts 85°
2026-05-07 22:36 48.99196 2.54755 641 ft 132 kts 84°
2026-05-07 22:36 48.99270 2.56134 454 ft 131 kts 84°
2026-05-07 22:37 48.99344 2.57485 364 ft 120 kts 86°
2026-05-07 22:37 48.99394 2.58478 363 ft 65 kts 85°
2026-05-07 22:37 48.99425 2.59055 364 ft 50 kts 81°
2026-05-07 22:37 48.99531 2.59463 364 ft 29 kts 65°
2026-05-07 22:38 48.99600 2.59669 365 ft 17 kts 40°
2026-05-07 22:38 48.99692 2.59695 361 ft 11 kts 356°
2026-05-07 22:38 48.99772 2.59681 363 ft 13 kts 353°
2026-05-07 22:38 48.99863 2.59664 357 ft 14 kts 353°
2026-05-07 22:39 48.99954 2.59656 360 ft 13 kts 356°
2026-05-07 22:39 49.00048 2.59644 366 ft 12 kts 348°
2026-05-07 22:39 49.00080 2.59591 362 ft 6 kts 275°
2026-05-07 22:39 49.00076 2.59505 365 ft 9 kts 266°
2026-05-07 22:40 49.00070 2.59397 364 ft 11 kts 264°
2026-05-07 22:40 49.00063 2.59272 364 ft 13 kts 265°
2026-05-07 22:40 49.00055 2.59128 360 ft 14 kts 265°
2026-05-07 22:40 49.00052 2.58971 363 ft 14 kts 282°
2026-05-07 22:41 49.00115 2.58888 365 ft 11 kts 344°
2026-05-07 22:41 49.00181 2.58884 364 ft 10 kts 358°
2026-05-07 22:41 49.00250 2.58876 361 ft 10 kts 355°
2026-05-07 22:41 49.00312 2.58870 361 ft 1 kts
2026-05-07 22:42 49.00316 2.58877 364 ft 1 kts 41°
2026-05-07 22:42 49.00323 2.58907 361 ft 4 kts 77°
2026-05-07 22:42 49.00326 2.58951 358 ft 4 kts 84°
2026-05-07 22:42 49.00328 2.58987 358 ft 3 kts 85°
2026-05-07 22:43 49.00329 2.59002 358 ft 0 kts 85°
2026-05-07 22:43 49.00329 2.59003 358 ft 0 kts 85°
2026-05-07 22:46 49.00329 2.59002 358 ft 0 kts 85°